Tracking 28790 objects as of 19-Apr-2024
HD Live streaming from Space Station
objects crossing your sky now

THORAD DELTA 1 DEB

Track THORAD DELTA 1 DEB now!
10-day predictions


NORAD ID: 8142
Int'l Code: 1974-089L
Perigee: 1,234.3 km
Apogee: 1,779.2 km
Inclination: 101.1 °
Period: 116.0 minutes
Semi major axis: 7877 km
RCS: 0.4296 m2 (medium)
Launch date: November 15, 1974
Source: United States (US)
Launch site: AIR FORCE WESTERN TEST RANGE (AFWTR)

Note: This is SATELLITE DEBRIS
Your satellite tracking list
Your tracking list is empty




NASA's NSSDC Master Catalog

Two Line Element Set (TLE):
1 08142U 74089L   24109.84443144 -.00007391  00000-0 -43752-1 0  9995
2 08142 101.0945  51.4060 0345880  70.9269 353.9887 12.41649534184212
Source of the keplerian elements: AFSPC